Regional Weather Roundup
Issued by NWS

Home | Current Version | Previous Version | Text Only | Print | Product List | Glossary Off
Versions: 1 2 3 4 5 6 7 8 9 10 11 12 13 14 15 16 17 18 19 20 21 22 23 24 25 26 27 28 29 30 31 32 33 34 35 36 37 38 39 40 41 42 43 44 45 46 47 48 49 50

000
ASUS43 KIND 271809
RWRIN

WEATHER ROUNDUP FOR INDIANA
NATIONAL WEATHER SERVICE INDIANAPOLIS IN
200 PM EDT SAT AUG 27 2016

NOTE: "FAIR" INDICATES FEW OR NO CLOUDS BELOW 12,000 FEET WITH NO
SIGNIFICANT WEATHER AND/OR OBSTRUCTIONS TO VISIBILITY.

* - STATION DOES NOT REPORT WEATHER SUCH AS PRECIPITATION OR FOG.

+ - STATION NOT QUALITY CONTROLLED BY THE NATIONAL WEATHER SERVICE.
    USE DATA WITH CAUTION...ESPECIALLY DEWPOINT AND RELATIVE
    HUMIDITY OBSERVATIONS.

INZ001>003-010>013-019-020-271900-
NORTHWEST INDIANA

CITY           SKY/WX    TMP DP  RH WIND       PRES   REMARKS
GARY /AIRPORT/ PTSUNNY   82  73  74 S10       30.05F
KNOX *+        CLOUDY    79  52  38 S6        30.07F
LA PORTE +     CLOUDY    80  78  95 S5        30.08F
                                      6HR PCP:  0.19;

MICHIGAN CITY+ PTSUNNY   77  75  94 MISG      30.06F
MONTICELLO +   CLOUDY    80  68  68 S6        30.07F
6HR MIN TEMP:  71; 6HR MAX TEMP:  80; 6HR PCP:  0.01;

RENSSELAER +   MOSUNNY   82  73  74 S7        30.06F
VALPARAISO     PTSUNNY   79  71  76 S10       30.07F
6HR MIN TEMP:  69; 6HR MAX TEMP:  79; 6HR PCP:  0.12;


$$

LMZ046-743>745-271900-
SOUTHERN LAKE MICHIGAN

STATION/POSITION TIME  TEMP    WIND        PRES    WAVE
                       AIR SEA DIR/SP/G            HT
                 (UTC) (F)     (DEG/KT/KT) (MB)    (FT)
BURNS HARBOR     1708   78     200/ 13/ 16 1018.3F
MICHIGAN CITY    1700   75     130/ 13/ 15   N/A
5NW MICH CITY    1800   77 75  170/ 10/ 12   N/A     1

$$

INZ004-005-014>016-021>024-271900-
NORTH CENTRAL INDIANA

CITY           SKY/WX    TMP DP  RH WIND       PRES   REMARKS
ELKHART        CLOUDY    75  72  88 E6        30.09S
GOSHEN         PTSUNNY   76  71  85 SE6       30.08F
6HR MIN TEMP:  70; 6HR MAX TEMP:  76; 6HR PCP:  1.08;

LOGANSPORT +   CLOUDY    77  73  88 SE7       30.09F
PERU/GRISSOM   MOSUNNY   78  73  86 S9        30.08F
6HR MIN TEMP:  71; 6HR MAX TEMP:  78; 6HR PCP:  0.41;

ROCHESTER +    CLOUDY    81  73  78 S6        30.08F
SOUTH BEND     MOSUNNY   77  71  82 S8        30.08F
6HR MIN TEMP:  68; 6HR MAX TEMP:  77; 6HR PCP:  1.08;

WARSAW +       CLOUDY    77  77 100 SE5       30.09S

$$

INZ006>009-017-018-025>027-271900-
NORTHEAST INDIANA

CITY           SKY/WX    TMP DP  RH WIND       PRES   REMARKS
ANGOLA *+      MOSUNNY   72  64  78 E6        30.11F
AUBURN +       CLOUDY    75  68  78 CALM      30.11F
FORT WAYNE     CLOUDY    78  69  73 SE6       30.11S
6HR MIN TEMP:  71; 6HR MAX TEMP:  83; 6HR PCP: TRACE;

HUNTINGTON +   CLOUDY    78  70  77 S6        30.11S
6HR MIN TEMP:  71; 6HR MAX TEMP:  80;


$$

INZ028-029-035-036-043>045-051>053-271900-
WEST CENTRAL INDIANA

CITY           SKY/WX    TMP DP  RH WIND       PRES   REMARKS
CRAWFORDSVL +  PTSUNNY   78  73  84 SE6       30.09F
6HR MIN TEMP:  68; 6HR MAX TEMP:  79;

GREENCASTLE +  CLOUDY    79  75  89 CALM      30.10F
LAFAYETTE      CLOUDY    81  73  76 S8        30.07F
6HR MIN TEMP:  70; 6HR MAX TEMP:  81; 6HR PCP:  0.11;

TERRE HAUTE    CLOUDY    82  71  69 VRB3      30.09F
6HR MIN TEMP:  72; 6HR MAX TEMP:  83;


$$

INZ030>032-037>040-046>048-054>057-064-065-271900-
CENTRAL INDIANA

CITY           SKY/WX    TMP DP  RH WIND       PRES   REMARKS
ANDERSON       LGT RAIN  73  73 100 SE6       30.14S
COLUMBUS       PTSUNNY   73  73 100 CALM      30.13F
INDIANAPOLIS   CLOUDY    75  71  87 SE3       30.10F
6HR MIN TEMP:  72; 6HR MAX TEMP:  77; 6HR PCP:  0.66;

-EAGLE CREEK   CLOUDY    76  71  85 S3        30.10F
6HR MIN TEMP:  72; 6HR MAX TEMP:  77; 6HR PCP:  0.17;

KOKOMO *+      CLOUDY    79  73  83 S9        30.09F
6HR MIN TEMP:  72; 6HR MAX TEMP:  79; 6HR PCP:  0.06;

MARION +       CLOUDY    78  71  79 S7        30.12F
MT COMFORT *+  CLOUDY    72  72 100 SE7       30.12F
SHELBYVILLE    LGT RAIN  74  71  91 E5        30.11F
6HR MIN TEMP:  74; 6HR MAX TEMP:  82; 6HR PCP:  0.26;

ZIONSVILLE +   CLOUDY    74  70  88 S6        30.12F
6HR MIN TEMP:  69; 6HR MAX TEMP:  75; 6HR PCP:  0.04;


$$

INZ033-034-041-042-049-050-058-059-271900-
EAST CENTRAL INDIANA

CITY           SKY/WX    TMP DP  RH WIND       PRES   REMARKS
MUNCIE         CLOUDY    77  72  84 S5        30.14S
6HR MIN TEMP:  76; 6HR MAX TEMP:  83; 6HR PCP:  0.02;


$$

INZ060-061-067>069-081>083-085>088-271900-
SOUTHWEST INDIANA

CITY           SKY/WX    TMP DP  RH WIND       PRES   REMARKS
EVANSVILLE     SUNNY     85  70  60 S5        30.09F
6HR MIN TEMP:  73; 6HR MAX TEMP:  85;

HUNTINGBURG *+ SUNNY     86  72  62 CALM      30.10F
6HR MIN TEMP:  73; 6HR MAX TEMP:  86;

WASHINGTON +   PTSUNNY   82  74  78 MISG      30.09F
6HR MIN TEMP:  70; 6HR MAX TEMP:  82; 6HR PCP:  1.78;


$$

INZ062-063-066-070>080-084-089>092-271900-
SOUTH CENTRAL AND SOUTHEAST INDIANA

CITY           SKY/WX    TMP DP  RH WIND       PRES   REMARKS
BLOOMINGTON    SUNNY     79  70  74 VRB3      30.11F
6HR MIN TEMP:  71; 6HR MAX TEMP:  79; 6HR PCP:  0.30;

MADISON *+     MOSUNNY   73  70  88 N8G17     30.15F

$$





USA.gov is the U.S. government's official web portal to all federal, state and local government web resources and services.